Time,TemperatureF,DewpointF,PressureIn,WindDirection,WindDirectionDegrees,WindSpeedMPH,WindSpeedGustMPH,Humidity,HourlyPrecipIn,Conditions,Clouds,dailyrainin,SoftwareType,DateUTC
2013-05-13 00:02:00,47.0,31.0,30.11,SSE,158,2.0,-999.0,54,-99.99,,,-99.99,,2013-05-13 04:02:00,
2013-05-13 00:12:00,47.0,31.0,30.11,SSE,158,2.0,-999.0,54,-99.99,,,-99.99,,2013-05-13 04:12:00,
2013-05-13 00:23:00,47.0,31.0,30.11,SSE,158,2.0,-999.0,54,-99.99,,,-99.99,,2013-05-13 04:23:00,
2013-05-13 00:32:00,47.0,31.0,30.11,SSE,158,2.0,-999.0,54,-99.99,,,-99.99,,2013-05-13 04:32:00,
2013-05-13 00:53:00,46.0,32.0,30.11,West,269,2.0,-999.0,57,-99.99,,,-99.99,,2013-05-13 04:53:00,
2013-05-13 01:02:00,46.0,32.0,30.11,West,269,2.0,-999.0,57,-99.99,,,-99.99,,2013-05-13 05:02:00,
2013-05-13 01:12:00,45.0,31.0,30.11,ENE,66,2.0,-999.0,58,-99.99,,,-99.99,,2013-05-13 05:12:00,
2013-05-13 01:22:00,45.0,31.0,30.11,ENE,66,2.0,-999.0,58,-99.99,,,-99.99,,2013-05-13 05:22:00,
2013-05-13 01:32:00,45.0,31.0,30.11,ENE,66,2.0,-999.0,58,-99.99,,,-99.99,,2013-05-13 05:32:00,
2013-05-13 01:42:00,45.0,31.0,30.11,ENE,66,2.0,-999.0,58,-99.99,,,-99.99,,2013-05-13 05:42:00,
2013-05-13 01:52:00,45.0,32.0,30.11,South,185,2.0,-999.0,59,-99.99,,,-99.99,,2013-05-13 05:52:00,
2013-05-13 02:01:00,45.0,32.0,30.11,South,185,2.0,-999.0,59,-99.99,,,-99.99,,2013-05-13 06:01:00,
2013-05-13 02:12:00,45.0,32.0,30.11,South,185,2.0,-999.0,59,-99.99,,,-99.99,,2013-05-13 06:12:00,
2013-05-13 02:21:00,45.0,32.0,30.10,NNE,21,2.0,-999.0,60,-99.99,,,-99.99,,2013-05-13 06:21:00,
2013-05-13 02:32:00,45.0,32.0,30.10,NNE,21,2.0,-999.0,60,-99.99,,,-99.99,,2013-05-13 06:32:00,
2013-05-13 02:42:00,44.0,33.0,30.11,East,97,2.0,-999.0,65,-99.99,,,-99.99,,2013-05-13 06:42:00,
2013-05-13 02:52:00,44.0,33.0,30.11,East,97,2.0,-999.0,65,-99.99,,,-99.99,,2013-05-13 06:52:00,
2013-05-13 03:01:00,44.0,33.0,30.11,East,97,2.0,-999.0,65,-99.99,,,-99.99,,2013-05-13 07:01:00,
2013-05-13 03:11:00,44.0,33.0,30.11,East,97,2.0,-999.0,65,-99.99,,,-99.99,,2013-05-13 07:11:00,
2013-05-13 03:22:00,43.0,32.0,30.11,East,81,2.0,-999.0,65,-99.99,,,-99.99,,2013-05-13 07:22:00,
2013-05-13 03:32:00,43.0,32.0,30.11,East,81,2.0,-999.0,65,-99.99,,,-99.99,,2013-05-13 07:32:00,
2013-05-13 03:42:00,43.0,32.0,30.11,NE,44,2.0,-999.0,64,-99.99,,,-99.99,,2013-05-13 07:42:00,
2013-05-13 03:52:00,43.0,32.0,30.11,NE,44,2.0,-999.0,64,-99.99,,,-99.99,,2013-05-13 07:52:00,
2013-05-13 04:02:00,43.0,32.0,30.11,NE,44,2.0,-999.0,64,-99.99,,,-99.99,,2013-05-13 08:02:00,
2013-05-13 04:11:00,43.0,32.0,30.11,NE,44,2.0,-999.0,64,-99.99,,,-99.99,,2013-05-13 08:11:00,
2013-05-13 04:21:00,42.0,30.0,30.11,ENE,57,2.0,-999.0,63,-99.99,,,-99.99,,2013-05-13 08:21:00,
2013-05-13 04:31:00,42.0,30.0,30.11,ENE,57,2.0,-999.0,63,-99.99,,,-99.99,,2013-05-13 08:31:00,
2013-05-13 04:42:00,42.0,30.0,30.11,ENE,57,2.0,-999.0,63,-99.99,,,-99.99,,2013-05-13 08:42:00,
2013-05-13 04:52:00,43.0,31.0,30.12,NE,44,2.0,-999.0,63,-99.99,,,-99.99,,2013-05-13 08:52:00,
2013-05-13 05:01:00,43.0,31.0,30.12,NE,44,2.0,-999.0,63,-99.99,,,-99.99,,2013-05-13 09:01:00,
2013-05-13 05:11:00,43.0,31.0,30.12,NE,44,2.0,-999.0,63,-99.99,,,-99.99,,2013-05-13 09:11:00,
2013-05-13 05:21:00,43.0,31.0,30.12,NE,44,2.0,-999.0,63,-99.99,,,-99.99,,2013-05-13 09:21:00,
2013-05-13 05:33:00,42.0,31.0,30.12,WNW,301,1.0,-999.0,64,-99.99,,,-99.99,,2013-05-13 09:33:00,
2013-05-13 05:42:00,42.0,31.0,30.12,WNW,301,1.0,-999.0,64,-99.99,,,-99.99,,2013-05-13 09:42:00,
2013-05-13 05:52:00,42.0,30.0,30.12,South,189,1.0,-999.0,62,-99.99,,,-99.99,,2013-05-13 09:52:00,
2013-05-13 06:03:00,42.0,30.0,30.12,South,189,1.0,-999.0,62,-99.99,,,-99.99,,2013-05-13 10:03:00,
2013-05-13 06:12:00,42.0,30.0,30.12,South,189,1.0,-999.0,62,-99.99,,,-99.99,,2013-05-13 10:12:00,
2013-05-13 06:22:00,41.0,30.0,30.14,NNE,26,1.0,-999.0,65,-99.99,,,-99.99,,2013-05-13 10:22:00,
2013-05-13 06:32:00,41.0,30.0,30.14,NNE,26,1.0,-999.0,65,-99.99,,,-99.99,,2013-05-13 10:32:00,
2013-05-13 06:43:00,41.0,30.0,30.14,NNE,26,1.0,-999.0,65,-99.99,,,-99.99,,2013-05-13 10:43:00,
2013-05-13 06:52:00,41.0,31.0,30.15,SSE,163,1.0,-999.0,66,-99.99,,,-99.99,,2013-05-13 10:52:00,
2013-05-13 07:02:00,41.0,31.0,30.15,SSE,163,1.0,-999.0,66,-99.99,,,-99.99,,2013-05-13 11:02:00,
2013-05-13 07:12:00,41.0,31.0,30.15,SSE,163,1.0,-999.0,66,-99.99,,,-99.99,,2013-05-13 11:12:00,
2013-05-13 07:22:00,41.0,31.0,30.15,SSE,163,1.0,-999.0,66,-99.99,,,-99.99,,2013-05-13 11:22:00,
2013-05-13 07:32:00,41.0,29.0,30.17,SSW,205,2.0,-999.0,62,-99.99,,,-99.99,,2013-05-13 11:32:00,
2013-05-13 07:42:00,41.0,29.0,30.17,SSW,205,2.0,-999.0,62,-99.99,,,-99.99,,2013-05-13 11:42:00,
2013-05-13 07:52:00,42.0,29.0,30.18,South,190,1.0,-999.0,60,-99.99,,,-99.99,,2013-05-13 11:52:00,
2013-05-13 08:02:00,42.0,29.0,30.18,South,190,1.0,-999.0,60,-99.99,,,-99.99,,2013-05-13 12:02:00,
2013-05-13 08:12:00,42.0,29.0,30.18,South,190,1.0,-999.0,60,-99.99,,,-99.99,,2013-05-13 12:12:00,
2013-05-13 08:21:00,43.0,29.0,30.19,SSE,147,1.0,-999.0,58,-99.99,,,-99.99,,2013-05-13 12:21:00,
2013-05-13 08:32:00,43.0,29.0,30.19,SSE,147,1.0,-999.0,58,-99.99,,,-99.99,,2013-05-13 12:32:00,
2013-05-13 08:42:00,43.0,29.0,30.19,SSE,147,1.0,-999.0,58,-99.99,,,-99.99,,2013-05-13 12:42:00,
2013-05-13 08:52:00,44.0,30.0,30.22,WSW,253,1.0,-999.0,57,-99.99,,,-99.99,,2013-05-13 12:52:00,
2013-05-13 09:01:00,44.0,30.0,30.22,WSW,253,1.0,-999.0,57,-99.99,,,-99.99,,2013-05-13 13:01:00,
2013-05-13 09:11:00,44.0,30.0,30.22,WSW,253,1.0,-999.0,57,-99.99,,,-99.99,,2013-05-13 13:11:00,
2013-05-13 09:21:00,45.0,30.0,30.22,South,191,1.0,-999.0,55,-99.99,,,-99.99,,2013-05-13 13:21:00,
2013-05-13 09:32:00,45.0,30.0,30.22,South,191,1.0,-999.0,55,-99.99,,,-99.99,,2013-05-13 13:32:00,
2013-05-13 09:42:00,47.0,30.0,30.23,West,273,2.0,-999.0,51,-99.99,,,-99.99,,2013-05-13 13:42:00,
2013-05-13 09:52:00,47.0,30.0,30.23,West,273,2.0,-999.0,51,-99.99,,,-99.99,,2013-05-13 13:52:00,
2013-05-13 10:02:00,47.0,30.0,30.23,West,273,2.0,-999.0,51,-99.99,,,-99.99,,2013-05-13 14:02:00,
2013-05-13 10:11:00,47.0,30.0,30.23,West,273,2.0,-999.0,51,-99.99,,,-99.99,,2013-05-13 14:11:00,
2013-05-13 10:22:00,48.0,30.0,30.24,SSE,168,2.0,-999.0,50,-99.99,,,-99.99,,2013-05-13 14:22:00,
2013-05-13 10:32:00,48.0,30.0,30.24,SSE,168,2.0,-999.0,50,-99.99,,,-99.99,,2013-05-13 14:32:00,
2013-05-13 10:42:00,48.0,30.0,30.24,SSE,168,2.0,-999.0,50,-99.99,,,-99.99,,2013-05-13 14:42:00,
2013-05-13 10:52:00,50.0,29.0,30.24,WSW,249,2.0,-999.0,45,-99.99,,,-99.99,,2013-05-13 14:52:00,
2013-05-13 11:01:00,50.0,29.0,30.24,WSW,249,2.0,-999.0,45,-99.99,,,-99.99,,2013-05-13 15:01:00,
2013-05-13 11:11:00,50.0,29.0,30.24,WSW,249,2.0,-999.0,45,-99.99,,,-99.99,,2013-05-13 15:11:00,
2013-05-13 11:21:00,53.0,31.0,30.25,NNE,30,2.0,-999.0,42,-99.99,,,-99.99,,2013-05-13 15:21:00,
2013-05-13 11:32:00,53.0,31.0,30.25,NNE,30,2.0,-999.0,42,-99.99,,,-99.99,,2013-05-13 15:32:00,
2013-05-13 11:42:00,53.0,31.0,30.25,NNE,30,2.0,-999.0,42,-99.99,,,-99.99,,2013-05-13 15:42:00,
2013-05-13 11:53:00,53.0,31.0,30.25,NE,38,2.0,-999.0,42,-99.99,,,-99.99,,2013-05-13 15:53:00,
2013-05-13 12:03:00,53.0,31.0,30.25,NE,38,2.0,-999.0,42,-99.99,,,-99.99,,2013-05-13 16:03:00,
2013-05-13 12:12:00,53.0,31.0,30.25,NE,38,2.0,-999.0,42,-99.99,,,-99.99,,2013-05-13 16:12:00,
2013-05-13 12:21:00,54.0,31.0,30.25,WNW,295,3.0,-999.0,41,-99.99,,,-99.99,,2013-05-13 16:21:00,
2013-05-13 12:33:00,54.0,31.0,30.25,WNW,295,3.0,-999.0,41,-99.99,,,-99.99,,2013-05-13 16:33:00,
2013-05-13 12:43:00,55.0,31.0,30.24,WSW,247,3.0,-999.0,40,-99.99,,,-99.99,,2013-05-13 16:43:00,
2013-05-13 12:53:00,55.0,31.0,30.24,WSW,247,3.0,-999.0,40,-99.99,,,-99.99,,2013-05-13 16:53:00,
2013-05-13 13:02:00,55.0,31.0,30.24,WSW,247,3.0,-999.0,40,-99.99,,,-99.99,,2013-05-13 17:02:00,
2013-05-13 13:12:00,55.0,31.0,30.24,WSW,247,3.0,-999.0,40,-99.99,,,-99.99,,2013-05-13 17:12:00,
2013-05-13 13:21:00,57.0,31.0,30.23,WSW,255,3.0,-999.0,37,-99.99,,,-99.99,,2013-05-13 17:21:00,
2013-05-13 13:32:00,57.0,31.0,30.23,WSW,255,3.0,-999.0,37,-99.99,,,-99.99,,2013-05-13 17:32:00,
2013-05-13 13:42:00,58.0,33.0,30.24,WNW,291,3.0,-999.0,38,-99.99,,,-99.99,,2013-05-13 17:42:00,
2013-05-13 13:54:00,58.0,33.0,30.24,WNW,291,3.0,-999.0,38,-99.99,,,-99.99,,2013-05-13 17:54:00,
2013-05-13 14:03:00,58.0,33.0,30.24,WNW,291,3.0,-999.0,38,-99.99,,,-99.99,,2013-05-13 18:03:00,
2013-05-13 14:13:00,58.0,33.0,30.24,WNW,291,3.0,-999.0,38,-99.99,,,-99.99,,2013-05-13 18:13:00,
2013-05-13 14:23:00,58.0,33.0,30.23,West,270,4.0,-999.0,38,-99.99,,,-99.99,,2013-05-13 18:23:00,
2013-05-13 14:32:00,58.0,33.0,30.23,West,270,4.0,-999.0,38,-99.99,,,-99.99,,2013-05-13 18:32:00,
2013-05-13 14:42:00,58.0,34.0,30.22,South,185,4.0,-999.0,40,-99.99,,,-99.99,,2013-05-13 18:42:00,
2013-05-13 14:52:00,58.0,34.0,30.22,South,185,4.0,-999.0,40,-99.99,,,-99.99,,2013-05-13 18:52:00,
2013-05-13 15:01:00,58.0,34.0,30.22,South,185,4.0,-999.0,40,-99.99,,,-99.99,,2013-05-13 19:01:00,
2013-05-13 15:12:00,58.0,34.0,30.22,South,185,4.0,-999.0,40,-99.99,,,-99.99,,2013-05-13 19:12:00,
2013-05-13 15:21:00,58.0,34.0,30.22,South,185,4.0,-999.0,40,-99.99,,,-99.99,,2013-05-13 19:21:00,
2013-05-13 15:32:00,59.0,33.0,30.22,NW,310,3.0,-999.0,37,-99.99,,,-99.99,,2013-05-13 19:32:00,
2013-05-13 15:44:00,59.0,33.0,30.20,NW,310,4.0,-999.0,38,-99.99,,,-99.99,,2013-05-13 19:44:00,
2013-05-13 15:53:00,59.0,33.0,30.20,NW,310,4.0,-999.0,38,-99.99,,,-99.99,,2013-05-13 19:53:00,
2013-05-13 16:02:00,59.0,33.0,30.20,NW,310,4.0,-999.0,38,-99.99,,,-99.99,,2013-05-13 20:02:00,
2013-05-13 16:11:00,59.0,33.0,30.20,NW,310,4.0,-999.0,38,-99.99,,,-99.99,,2013-05-13 20:11:00,
2013-05-13 16:23:00,60.0,34.0,30.19,NE,42,4.0,-999.0,37,-99.99,,,-99.99,,2013-05-13 20:23:00,
2013-05-13 16:34:00,60.0,34.0,30.19,NE,42,4.0,-999.0,37,-99.99,,,-99.99,,2013-05-13 20:34:00,
2013-05-13 16:44:00,60.0,34.0,30.19,NE,42,4.0,-999.0,37,-99.99,,,-99.99,,2013-05-13 20:44:00,
2013-05-13 16:53:00,60.0,34.0,30.19,SSW,208,3.0,-999.0,38,-99.99,,,-99.99,,2013-05-13 20:53:00,
2013-05-13 17:03:00,60.0,34.0,30.19,SSW,208,3.0,-999.0,38,-99.99,,,-99.99,,2013-05-13 21:03:00,
2013-05-13 17:14:00,60.0,34.0,30.19,SSW,208,3.0,-999.0,38,-99.99,,,-99.99,,2013-05-13 21:14:00,
2013-05-13 17:23:00,60.0,35.0,30.18,NNW,341,3.0,-999.0,39,-99.99,,,-99.99,,2013-05-13 21:23:00,
2013-05-13 17:33:00,60.0,35.0,30.18,NNW,341,3.0,-999.0,39,-99.99,,,-99.99,,2013-05-13 21:33:00,
2013-05-13 17:44:00,60.0,35.0,30.18,NNW,341,3.0,-999.0,39,-99.99,,,-99.99,,2013-05-13 21:44:00,
2013-05-13 17:53:00,58.0,34.0,30.18,NW,319,4.0,-999.0,41,-99.99,,,-99.99,,2013-05-13 21:53:00,
2013-05-13 18:02:00,58.0,34.0,30.18,NW,319,4.0,-999.0,41,-99.99,,,-99.99,,2013-05-13 22:02:00,
2013-05-13 18:12:00,58.0,34.0,30.18,NW,319,4.0,-999.0,41,-99.99,,,-99.99,,2013-05-13 22:12:00,
2013-05-13 18:23:00,58.0,35.0,30.18,WNW,289,4.0,-999.0,42,-99.99,,,-99.99,,2013-05-13 22:23:00,
2013-05-13 18:32:00,58.0,35.0,30.18,WNW,289,4.0,-999.0,42,-99.99,,,-99.99,,2013-05-13 22:32:00,
2013-05-13 18:43:00,58.0,36.0,30.17,West,268,3.0,-999.0,43,-99.99,,,-99.99,,2013-05-13 22:43:00,
2013-05-13 18:52:00,58.0,36.0,30.17,West,268,3.0,-999.0,43,-99.99,,,-99.99,,2013-05-13 22:52:00,
2013-05-13 19:02:00,58.0,36.0,30.17,West,268,3.0,-999.0,43,-99.99,,,-99.99,,2013-05-13 23:02:00,
2013-05-13 19:13:00,58.0,36.0,30.17,West,268,3.0,-999.0,43,-99.99,,,-99.99,,2013-05-13 23:13:00,
2013-05-13 19:23:00,58.0,36.0,30.17,West,268,3.0,-999.0,43,-99.99,,,-99.99,,2013-05-13 23:23:00,
2013-05-13 19:33:00,57.0,34.0,30.17,WNW,289,3.0,-999.0,42,-99.99,,,-99.99,,2013-05-13 23:33:00,
2013-05-13 19:42:00,57.0,34.0,30.17,WNW,289,3.0,-999.0,42,-99.99,,,-99.99,,2013-05-13 23:42:00,
2013-05-13 19:54:00,56.0,34.0,30.18,WNW,296,3.0,-999.0,43,-99.99,,,-99.99,,2013-05-13 23:54:00,
2013-05-13 20:02:00,56.0,34.0,30.18,WNW,296,3.0,-999.0,43,-99.99,,,-99.99,,2013-05-14 00:02:00,
2013-05-13 20:13:00,55.0,35.0,30.18,West,271,2.0,-999.0,47,-99.99,,,-99.99,,2013-05-14 00:13:00,
2013-05-13 20:22:00,55.0,35.0,30.18,West,271,2.0,-999.0,47,-99.99,,,-99.99,,2013-05-14 00:22:00,
2013-05-13 20:32:00,55.0,35.0,30.18,West,271,2.0,-999.0,47,-99.99,,,-99.99,,2013-05-14 00:32:00,
2013-05-13 20:42:00,55.0,35.0,30.18,West,271,2.0,-999.0,47,-99.99,,,-99.99,,2013-05-14 00:42:00,
2013-05-13 20:52:00,54.0,35.0,30.19,WNW,294,1.0,-999.0,49,-99.99,,,-99.99,,2013-05-14 00:52:00,
2013-05-13 21:02:00,54.0,35.0,30.19,WNW,294,1.0,-999.0,49,-99.99,,,-99.99,,2013-05-14 01:02:00,
2013-05-13 21:11:00,54.0,35.0,30.19,WNW,294,1.0,-999.0,49,-99.99,,,-99.99,,2013-05-14 01:11:00,
2013-05-13 21:21:00,53.0,34.0,30.20,WNW,292,2.0,-999.0,49,-99.99,,,-99.99,,2013-05-14 01:21:00,
2013-05-13 21:32:00,53.0,34.0,30.20,WNW,292,2.0,-999.0,49,-99.99,,,-99.99,,2013-05-14 01:32:00,
2013-05-13 21:43:00,53.0,34.0,30.20,WNW,292,2.0,-999.0,49,-99.99,,,-99.99,,2013-05-14 01:43:00,
2013-05-13 21:53:00,53.0,34.0,30.21,WNW,296,1.0,-999.0,48,-99.99,,,-99.99,,2013-05-14 01:53:00,
2013-05-13 22:02:00,53.0,34.0,30.21,WNW,296,1.0,-999.0,48,-99.99,,,-99.99,,2013-05-14 02:02:00,
2013-05-13 22:12:00,53.0,32.0,30.22,WNW,287,1.0,-999.0,44,-99.99,,,-99.99,,2013-05-14 02:12:00,
2013-05-13 22:22:00,53.0,32.0,30.22,WNW,287,1.0,-999.0,44,-99.99,,,-99.99,,2013-05-14 02:22:00,
2013-05-13 22:32:00,53.0,32.0,30.22,WNW,287,1.0,-999.0,44,-99.99,,,-99.99,,2013-05-14 02:32:00,
2013-05-13 22:42:00,53.0,32.0,30.22,WNW,287,1.0,-999.0,44,-99.99,,,-99.99,,2013-05-14 02:42:00,
2013-05-13 22:52:00,53.0,31.0,30.23,North,354,1.0,-999.0,43,-99.99,,,-99.99,,2013-05-14 02:52:00,
2013-05-13 23:01:00,53.0,31.0,30.23,North,354,1.0,-999.0,43,-99.99,,,-99.99,,2013-05-14 03:01:00,
2013-05-13 23:11:00,53.0,31.0,30.23,North,354,1.0,-999.0,43,-99.99,,,-99.99,,2013-05-14 03:11:00,
2013-05-13 23:21:00,52.0,31.0,30.23,NNE,28,1.0,-999.0,44,-99.99,,,-99.99,,2013-05-14 03:21:00,
2013-05-13 23:33:00,52.0,31.0,30.23,NNE,28,1.0,-999.0,44,-99.99,,,-99.99,,2013-05-14 03:33:00,
2013-05-13 23:43:00,52.0,31.0,30.23,NNE,28,1.0,-999.0,44,-99.99,,,-99.99,,2013-05-14 03:43:00,
2013-05-13 23:53:00,52.0,32.0,30.23,East,91,1.0,-999.0,46,-99.99,,,-99.99,,2013-05-14 03:53:00,